Lexington Weather

Lexington, Massachusetts, USA

44°F
5/12/2021 5:15am 
  • Lexington Conditions: Clear
  • Temperature: 44.2°F / 6.8°CColder 0.2°F than last hour.
  • Dew Point: 33.3°FIncreased 0.8°Fsince last hour.
  • Relative Humidity: 65%Increased 2.0% since last hour.
  • Wind: Wind from SW SW 1 mph, 10-min avg: Calm, gust: 3 mph
  • Barometer: 29.94 inRising 0.02  inHg/hr Rising Slowly
  • Visibility: 10 miles
  • Rain Today: 0.00 in
  •   

Regional Weather Roundup
for Boston / Norton, MA

        
000
ASUS41 KBOX 081505
RWRBOX

REGIONAL WEATHER ROUNDUP
NATIONAL WEATHER SERVICE BOSTON/NORTON MA
1100 AM EDT SAT MAY 08 2021

NOTE:  "FAIR" INDICATES FEW OR NO CLOUDS BELOW 12,000 FEET WITH NO 
SIGNIFICANT WEATHER AND/OR OBSTRUCTIONS TO VISIBILITY.

MAZALL-081600-
EASTERN MASSACHUSETTS
  
CITY           SKY/WX    TMP DP  RH WIND       PRES   REMARKS
BOSTON         CLOUDY    52  38  58 NE9       29.88R                  
BEVERLY        CLOUDY    52  38  58 VRB5      29.87R                  
LAWRENCE       CLOUDY    53  35  50 NE8       29.89R                  
BEDFORD        CLOUDY    53  35  50 E7        29.86R                  
BLUE HILL        N/A     48  37  65 NE9       29.85R                  
NORWOOD        CLOUDY    52  37  56 VRB7      29.87R                  
MARSHFIELD     CLOUDY    50  43  76 VRB3G12   29.87R                  
PLYMOUTH       CLOUDY    49  40  71 N12       29.86R                  
TAUNTON        CLOUDY    50  38  63 VRB6      29.87R                  
NEW BEDFORD    CLOUDY    52  38  58 N7        29.85R                  
$$

MAZALL-081600-
CAPE COD AND THE ISLANDS
  
CITY           SKY/WX    TMP DP  RH WIND       PRES   REMARKS
FALMOUTH       CLOUDY    50  41  71 N12       29.84R                  
HYANNIS        CLOUDY    52  42  69 N14       29.82R                  
CHATHAM        CLOUDY    51  40  65 NE7       29.83R                  
PROVINCETOWN   CLOUDY    48  44  86 N10       29.86R                  
NANTUCKET      PTSUNNY   52  42  69 NW13      29.83R                  
MARTHAS VNYRD  CLOUDY    52  40  63 NW15      29.84R                  
$$
 
MAZALL-081600-
CENTRAL AND WESTERN MASSACHUSETTS
  
CITY           SKY/WX    TMP DP  RH WIND       PRES   REMARKS
WORCESTER      CLOUDY    51  30  44 N7        29.86S                  
FITCHBURG      CLOUDY    54  33  45 N9        29.87S                  
ORANGE         CLOUDY    55  29  36 VRB5      29.87S                  
SPRINGFIELD    CLOUDY    54  31  42 N5        29.85F                  
WESTFIELD      PTSUNNY   56  32  40 NW5       29.86F                  
NORTH ADAMS    CLOUDY    53  34  48 VRB7G20   29.87S                  
PITTSFIELD     CLOUDY    48  37  65 SW3       29.85S                  
$$
 
RIZALL-081600-
RHODE ISLAND
  
CITY           SKY/WX    TMP DP  RH WIND       PRES   REMARKS
PROVIDENCE     CLOUDY    55  34  45 N8        29.86S                  
NEWPORT        CLOUDY    51  35  54 N10       29.85S                  
BLOCK ISLAND   CLOUDY    50  33  52 N6        29.87S                  
SMITHFIELD       N/A     52  35  52 N12       29.86S                  
WESTERLY       CLOUDY    52  29  41 VRB6      29.86S                  
$$
 
CTZALL-081600-
CONNECTICUT
  
CITY           SKY/WX    TMP DP  RH WIND       PRES   REMARKS
BRADLEY INTL   CLOUDY    55  34  45 VRB5      29.87S                  
HARTFORD       PTSUNNY   56  32  40 NE6       29.87F                  
BRIDGEPORT     CLOUDY    54  35  48 SE6       29.88S                  
DANBURY        CLOUDY    53  32  44 VRB3      29.88S                  
GROTON         CLOUDY    55  31  39 NE6       29.86S                  
NEW HAVEN      CLOUDY    54  38  54 SW6       29.88S                  
CHESTER        FAIR      55  30  38 N9        29.87S                  
MERIDEN        CLOUDY    54  34  46 N6        29.88F                  
WILLIMANTIC    PTSUNNY   55  30  38 NE7       29.86F                  
OXFORD         CLOUDY    49  37  63 NE9       29.88S                  
$$

MEZ002-015-021-024-NHZ003-005-008-011-012-014-VTZ005-008-081600-
NORTHERN NEW ENGLAND
  
CITY           SKY/WX    TMP DP  RH WIND       PRES   REMARKS
PORTLAND ME    CLOUDY    51  37  58 NE8       29.87S                  
BANGOR ME      CLOUDY    48  35  60 NE14G22   29.87S                  
CONCORD NH     CLOUDY    53  32  44 CALM      29.86S                  
MANCHESTER NH  CLOUDY    55  30  38 NE8       29.86R                  
NASHUA NH      CLOUDY    53  32  44 CALM      29.88R                  
PORTSMOUTH NH  CLOUDY    53  31  44 NE6       29.88R                  
JAFFREY NH     CLOUDY    52  30  43 VRB6      29.87S                  
KEENE NH       CLOUDY    54  31  41 N7        29.87S                  
BURLINGTON VT  LGT RAIN  54  39  57 W7        29.88R                  
MT. WASHINGTON CLOUDY    28  23  80 NE9         N/A  WCI  20          
$$

NYZ052-076-081600-
EASTERN NEW YORK
  
CITY           SKY/WX    TMP DP  RH WIND       PRES   REMARKS
ALBANY         CLOUDY    52  31  44 VRB7      29.87S                  
NEW YORK CITY  CLOUDY    51  42  71 E10       29.87R                  
$$
 
ANZALL-081600-
MARINE OBSERVATIONS
  
STATION/POSITION TIME  TEMP    WIND        PRES    VSBY  WAVE
                       AIR SEA DIR/SP/G                  HT/PER
                 (UTC) (F)     (DEG/KT/KT) (MB)    (MI)  (FT/S)
BOSTON BUOY      1450   47 47   20/ 14/ 17 1011.3R         4/ 5
BUZZARDS BAY     1400          350/ 10/ 11 1011.7R
NANTUCKET SOUND  1450      53                N/A           2/ 3
MASS BAY-STELLWA 1404   47      20/ 16/ 21 1009.5R  1 7/8  3/ 5
ISLE OF SHOALS   1400   47      20/ 14/ 16 1010.7R
S OF BLOCK IS    1456      49                N/A           3/ 4
$$

......................KEY.........................
  SKY/WX - SKY CONDITION/PRESENT WEATHER
  TMP    - TEMPERATURE IN FAHRENHEIT
  DWPT   - DEWPOINT IN FAHRENHEIT
  RH     - RELATIVE HUMIDITY IN PERCENT
  WIND   - DIRECTION AND SPEED IN MPH
  PRES   - MEAN SEA LEVEL PRESSURE IN INCHES OF HG
  WCI    - WIND CHILL INDEX
  VSB    - VISIBILITY IN MILES
  HX     - HEAT INDEX
  TC     - TEMPERATURE IN CELSIUS
  VRB    - VARIABLE WIND DIRECTION
  N/A    - NOT AVAILABLE
  
      

Other recent Regional Weather Roundups

Wed May 12, 5:04am

Wed May 12, 4:04am

Wed May 12, 3:04am

Wed May 12, 2:04am

Wed May 12, 1:04am

Wed May 12, 12:05am

Tue May 11, 11:05pm

Tue May 11, 10:04pm

Tue May 11, 9:05pm

Tue May 11, 8:05pm

Tue May 11, 7:04pm

Tue May 11, 6:04pm

Tue May 11, 5:04pm

Tue May 11, 4:05pm

Tue May 11, 3:04pm

Tue May 11, 2:05pm

Tue May 11, 1:04pm

Tue May 11, 12:05pm

Tue May 11, 11:05am

Tue May 11, 10:04am

Tue May 11, 9:04am

Tue May 11, 8:04am

Tue May 11, 7:05am

Tue May 11, 6:04am

Tue May 11, 5:04am

Tue May 11, 4:04am

Tue May 11, 3:04am

Tue May 11, 2:04am

Tue May 11, 1:04am

Tue May 11, 12:04am

Mon May 10, 11:04pm

Mon May 10, 10:04pm

Mon May 10, 9:05pm

Mon May 10, 8:04pm

Mon May 10, 7:05pm

Mon May 10, 6:04pm

Mon May 10, 5:04pm

Mon May 10, 4:04pm

Mon May 10, 3:04pm

Mon May 10, 2:04pm

Mon May 10, 1:04pm

Mon May 10, 12:04pm

Mon May 10, 11:05am

Mon May 10, 10:04am

Mon May 10, 9:04am

Mon May 10, 8:04am

Mon May 10, 7:04am

Mon May 10, 6:04am

Mon May 10, 5:05am

Mon May 10, 4:04am

Mon May 10, 3:04am

Mon May 10, 2:04am

Mon May 10, 1:04am

Mon May 10, 12:04am

Sun May 9, 11:04pm

Sun May 9, 10:04pm

Sun May 9, 9:04pm

Sun May 9, 8:04pm

Sun May 9, 7:05pm

Sun May 9, 6:04pm

Sun May 9, 5:04pm

Sun May 9, 4:04pm

Sun May 9, 3:04pm

Sun May 9, 2:04pm

Sun May 9, 1:05pm

Sun May 9, 12:04pm

Sun May 9, 11:05am

Sun May 9, 10:04am

Sun May 9, 9:04am

Sun May 9, 8:04am

Sun May 9, 7:04am

Sun May 9, 6:04am

Sun May 9, 5:04am

Sun May 9, 4:04am

Sun May 9, 3:04am

Sun May 9, 2:04am

Sun May 9, 1:05am

Sun May 9, 12:04am

Sat May 8, 11:05pm

Sat May 8, 10:04pm

Sat May 8, 9:05pm

Sat May 8, 8:04pm

Sat May 8, 7:04pm

Sat May 8, 6:04pm

Sat May 8, 5:05pm

Sat May 8, 4:04pm

Sat May 8, 3:05pm

Sat May 8, 2:05pm

Sat May 8, 1:05pm

Sat May 8, 12:04pm

Sat May 8, 10:04am

Sat May 8, 9:04am

Sat May 8, 8:04am

Sat May 8, 7:04am

Sat May 8, 6:04am

Sat May 8, 5:04am

Sat May 8, 4:04am

Sat May 8, 3:04am

Sat May 8, 2:04am

Sat May 8, 1:05am

Sat May 8, 12:04am

Fri May 7, 11:04pm

Fri May 7, 10:05pm

Fri May 7, 9:04pm

Fri May 7, 8:04pm

Fri May 7, 7:05pm

Fri May 7, 6:04pm

Fri May 7, 5:05pm

Fri May 7, 4:04pm

Fri May 7, 3:04pm

Fri May 7, 2:05pm

Fri May 7, 1:04pm

Fri May 7, 12:04pm

Fri May 7, 11:05am

Fri May 7, 10:04am

Fri May 7, 9:04am

Fri May 7, 8:05am

Fri May 7, 7:04am

Fri May 7, 6:04am

Fri May 7, 5:04am

Fri May 7, 4:04am

Fri May 7, 3:04am

Fri May 7, 2:05am

Fri May 7, 1:04am

Fri May 7, 12:05am

Thu May 6, 11:04pm

Thu May 6, 10:04pm

Thu May 6, 9:05pm

Thu May 6, 8:04pm

Thu May 6, 7:04pm

Thu May 6, 6:04pm

Thu May 6, 5:05pm

Thu May 6, 4:04pm

Thu May 6, 3:04pm

Thu May 6, 2:05pm

Thu May 6, 1:04pm

Thu May 6, 12:04pm

Thu May 6, 11:04am

Thu May 6, 10:04am

Thu May 6, 9:04am

Thu May 6, 8:04am

Thu May 6, 7:04am

Thu May 6, 6:04am

Thu May 6, 5:04am

Thu May 6, 4:04am

Thu May 6, 3:04am

Thu May 6, 2:05am

Thu May 6, 1:04am

Thu May 6, 12:05am

Wed May 5, 11:04pm

Wed May 5, 10:04pm

Wed May 5, 9:05pm

Wed May 5, 8:04pm

Wed May 5, 7:05pm

Wed May 5, 6:04pm

Wed May 5, 5:04pm

Wed May 5, 4:04pm

Wed May 5, 3:04pm

Wed May 5, 2:05pm

Wed May 5, 1:05pm

Wed May 5, 12:04pm

Wed May 5, 11:05am

Wed May 5, 10:04am

Wed May 5, 9:04am

Wed May 5, 8:04am

Wed May 5, 7:04am

Wed May 5, 6:05am

Meta data:

ID: 1db0beae-2738-4041-9793-1a56a57ad0cc
Link: https://api.weather.gov/products/1db0beae-2738-4041-9793-1a56a57ad0cc